Vicksburg, LA

12:20 AM CDT on August 24, 2017 (GMT -0500)
Vicksburg Tallulah Regional

Weather History for KTVR - November, 2013

Change the Weather History Date:

Wednesday, November 13, 2013

  Actual Average Record
Temperature  
Mean Temperature 39 °F 56 °F  
Max Temperature 55 °F 69 °F 88 °F (1955)
Min Temperature 22 °F 44 °F 21 °F (1950)
Degree Days  
Heating Degree Days 26 9  
Month to date heating degree days 153 100  
Since 1 July heating degree days 254 202  
Cooling Degree Days 0 0  
Month to date cooling degree days 3 12  
Year to date cooling degree days 2251 2221  
Moisture  
Dew Point 23 °F    
Average Humidity 58    
Maximum Humidity 92    
Minimum Humidity 24    
Precipitation  
Precipitation 0.00 in 0.16 in 2.08 in (1957)
Month to date precipitation 0.37 1.82  
Year to date precipitation 57.72 45.95  
Sea Level Pressure  
Sea Level Pressure 30.58 in    
Wind  
Wind Speed 8 mph (NNE)    
Max Wind Speed 16 mph    
Max Gust Speed 20 mph    
Visibility 10 miles    
Events      
T = Trace of Precipitation, MM = Missing Value Source: NWS Daily Summary

Daily Weather History Graph

Daily Weather History Graph

Search for Another Location

Airport or City:

Trip Planner

Search our weather history database for the weather conditions in past years. The results will help you decide how hot, cold, wet, or windy it might be!

Date:

Astronomy

Nov. 13, 2013 Rise Set
Actual Time 6:31 AM CST 5:04 PM CST
Civil Twilight 6:05 AM CST 5:30 PM CST
Nautical Twilight 5:36 AM CST 6:00 PM CST
Astronomical Twilight 5:07 AM CST 6:29 PM CST
Moon 2:41 PM CST (11/13) 2:38 AM CST (11/13)
Length of Visible Light 11h 24m
Length of Day
10h 32m
Waxing Gibbous, 85% of the Moon is Illuminated
Nov 13
Waxing Gibbous
Nov 17
Full
Nov 25
Last Quarter
Dec 2
New
Dec 9
First Quarter

Hourly Weather History & Observations

Time (CST) Temp. Windchill Dew Point Humidity Pressure Visibility Wind Dir Wind Speed Gust Speed Precip Events Conditions
12:53 AM 34.0 °F 25.0 °F 26.1 °F 73% 30.63 in 10.0 mi NNE 12.7 mph 19.6 mph N/A   Clear
1:53 AM 33.1 °F 24.4 °F 26.1 °F 75% 30.63 in 10.0 mi NNE 11.5 mph - N/A   Clear
2:53 AM 32.0 °F 23.6 °F 25.0 °F 75% 30.64 in 10.0 mi North 10.4 mph - N/A   Clear
3:53 AM 32.0 °F 23.6 °F 25.0 °F 75% 30.65 in 10.0 mi North 10.4 mph - N/A   Clear
4:53 AM 30.9 °F 22.8 °F 25.0 °F 79% 30.65 in 10.0 mi NNE 9.2 mph - N/A   Clear
5:53 AM 30.0 °F 21.7 °F 24.1 °F 79% 30.65 in 10.0 mi NNE 9.2 mph - N/A   Clear
6:53 AM 30.9 °F 22.2 °F 25.0 °F 79% 30.66 in 10.0 mi NNE 10.4 mph - N/A   Clear
7:53 AM 34.0 °F 26.6 °F 25.0 °F 70% 30.67 in 10.0 mi NNE 9.2 mph - N/A   Clear
8:53 AM 39.0 °F 30.6 °F 24.1 °F 55% 30.67 in 10.0 mi ENE 15.0 mph - N/A   Clear
9:53 AM 43.0 °F 38.2 °F 24.1 °F 47% 30.66 in 10.0 mi NNE 8.1 mph - N/A   Clear
10:53 AM 46.9 °F - 21.0 °F 36% 30.65 in 10.0 mi NNE 6.9 mph - N/A   Clear
11:53 AM 51.1 °F - 19.9 °F 29% 30.62 in 10.0 mi NE 8.1 mph - N/A   Clear
12:53 PM 52.0 °F - 18.0 °F 26% 30.57 in 10.0 mi NE 8.1 mph - N/A   Clear
1:53 PM 53.1 °F - 18.0 °F 25% 30.55 in 10.0 mi ENE 8.1 mph - N/A   Clear
2:53 PM 53.1 °F - 21.0 °F 29% 30.52 in 10.0 mi North 5.8 mph - N/A   Clear
3:53 PM 52.0 °F - 21.0 °F 30% 30.51 in 10.0 mi North 10.4 mph - N/A   Clear
4:53 PM 46.0 °F 43.1 °F 24.1 °F 42% 30.51 in 10.0 mi North 5.8 mph - N/A   Clear
5:53 PM 42.1 °F 39.2 °F 25.0 °F 51% 30.51 in 10.0 mi NNW 4.6 mph - N/A   Clear
6:53 PM 30.9 °F 27.5 °F 26.1 °F 82% 30.52 in 10.0 mi North 3.5 mph - N/A   Clear
7:53 PM 26.1 °F 21.9 °F 23.0 °F 88% 30.52 in 10.0 mi NNW 3.5 mph - N/A   Clear
8:53 PM 36.0 °F 32.1 °F 28.0 °F 73% 30.51 in 10.0 mi NNE 4.6 mph - N/A   Clear
9:53 PM 26.1 °F 21.9 °F 24.1 °F 92% 30.51 in 10.0 mi NW 3.5 mph - N/A   Clear
10:53 PM 25.0 °F - 23.0 °F 92% 30.50 in 10.0 mi Calm Calm - N/A   Clear
11:53 PM 24.1 °F 18.2 °F 21.0 °F 88% 30.47 in 10.0 mi North 4.6 mph - N/A   Clear